Douglas, WY

4:25 AM MDT on May 20, 2018 (GMT -0600)
Converse County

Weather History for KDGW - March, 2013

Change the Weather History Date:

Wednesday, March 20, 2013

  Actual Average Record
Temperature  
Mean Temperature 34 °F 37 °F  
Max Temperature 54 °F 50 °F 68 °F (2015)
Min Temperature 14 °F 23 °F 3 °F (2002)
Degree Days  
Heating Degree Days 31 28  
Month to date heating degree days 566 625  
Since 1 July heating degree days 5597 6025  
Cooling Degree Days 0 0  
Month to date cooling degree days 0 0  
Year to date cooling degree days 0 0  
Moisture  
Dew Point 17 °F    
Average Humidity 50    
Maximum Humidity 80    
Minimum Humidity 20    
Precipitation  
Precipitation 0.00 in 0.03 in 0.10 in (2017)
Month to date precipitation 0.05 0.47  
Year to date precipitation 0.54 1.26  
Sea Level Pressure  
Sea Level Pressure 30.01 in    
Wind  
Wind Speed 12 mph (South)    
Max Wind Speed 25 mph    
Max Gust Speed 32 mph    
Visibility 10 miles    
Events      
T = Trace of Precipitation, MM = Missing Value Source: NWS Daily Summary

Daily Weather History Graph

Daily Weather History Graph

Search for Another Location

Airport or City:

Astronomy

Mar. 20, 2013 Rise Set
Actual Time 7:04 AM MDT 7:14 PM MDT
Civil Twilight 6:36 AM MDT 7:42 PM MDT
Nautical Twilight 6:03 AM MDT 8:15 PM MDT
Astronomical Twilight 5:29 AM MDT 8:49 PM MDT
Moon 12:44 PM MDT 2:53 AM MDT
Length of Visible Light 13h 06m
Length of Day
12h 09m
First Quarter, 60% of the Moon is Illuminated
Mar 20
First Quarter
Mar 27
Full
Apr 2
Last Quarter
Apr 10
New
Apr 18
First Quarter

Hourly Weather History & Observations

Time (MDT) Temp. Windchill Dew Point Humidity Pressure Visibility Wind Dir Wind Speed Gust Speed Precip Events Conditions
12:53 AM 16.0 °F 7.4 °F 9.0 °F 74% 30.38 in 10.0 mi SE 5.8 mph - N/A   Clear
1:53 AM 14.0 °F 6.5 °F 9.0 °F 80% 30.35 in 10.0 mi SE 4.6 mph - N/A   Clear
2:53 AM 19.0 °F 6.8 °F 10.9 °F 71% 30.30 in 10.0 mi ESE 11.5 mph - N/A   Clear
3:53 AM 19.0 °F 6.1 °F 12.0 °F 74% 30.27 in 10.0 mi SE 12.7 mph - N/A   Clear
4:53 AM 16.0 °F 8.8 °F 10.0 °F 77% 30.27 in 10.0 mi SSE 4.6 mph - N/A   Clear
5:53 AM 16.0 °F 8.8 °F 10.9 °F 81% 30.26 in 10.0 mi SSE 4.6 mph - N/A   Clear
6:53 AM 17.1 °F 5.8 °F 10.9 °F 77% 30.25 in 10.0 mi SSE 9.2 mph - N/A   Clear
7:53 AM 21.0 °F 10.6 °F 12.9 °F 71% 30.22 in 10.0 mi SE 9.2 mph - N/A   Clear
8:53 AM 27.0 °F 16.7 °F 16.0 °F 63% 30.17 in 10.0 mi SSE 11.5 mph - N/A   Clear
9:53 AM 32.0 °F 22.1 °F 16.0 °F 52% 30.13 in 10.0 mi SSE 13.8 mph - N/A   Clear
10:53 AM 39.0 °F 31.8 °F 15.1 °F 38% 30.06 in 10.0 mi SE 11.5 mph - N/A   Clear
11:53 AM 45.0 °F 38.2 °F 14.0 °F 29% 30.00 in 10.0 mi SE 15.0 mph - N/A   Clear
12:53 PM 51.1 °F - 12.9 °F 22% 29.92 in 10.0 mi SE 9.2 mph - N/A   Clear
1:53 PM 52.0 °F - 14.0 °F 22% 29.90 in 10.0 mi Calm Calm - N/A   Overcast
2:53 PM 54.0 °F - 14.0 °F 21% 29.83 in 10.0 mi Variable 3.5 mph - N/A   Overcast
3:53 PM 53.1 °F - 19.0 °F 26% 29.81 in 10.0 mi West 25.3 mph 29.9 mph N/A   Overcast
4:53 PM 50.0 °F - 23.0 °F 35% 29.81 in 10.0 mi SSW 13.8 mph - N/A   Scattered Clouds
5:53 PM 52.0 °F - 25.0 °F 35% 29.78 in 10.0 mi SW 15.0 mph - N/A   Overcast
6:53 PM 48.9 °F - 28.0 °F 44% 29.75 in 10.0 mi West 20.7 mph 25.3 mph N/A   Clear
7:53 PM 48.0 °F - 28.9 °F 48% 29.72 in 10.0 mi West 20.7 mph 27.6 mph N/A   Clear
8:53 PM 46.9 °F - 28.0 °F 48% 29.70 in 10.0 mi West 16.1 mph - N/A   Clear
9:53 PM 46.0 °F 39.6 °F 28.0 °F 50% 29.69 in 10.0 mi West 15.0 mph 21.9 mph N/A   Clear
10:53 PM 45.0 °F 36.6 °F 28.9 °F 53% 29.65 in 10.0 mi West 21.9 mph - N/A   Clear